Location: ???????
(38.3360°N, 23.6977°E)
Time: 22:44:23
(UTC+00:00)

Iridium 45 - Pass Details

Date: 17 November 2025
Orbit: 404 x 542 km, 86.4° (Epoch: 09 December)

Event Time Altitude Azimuth Distance (km) Brightness Sun altitude
Rises 16:45:16 0° 175° (S) 2,547 8.3 -18.4°
Reaches altitude 10° 16:47:25 10° 172° (S) 1,645 7.3 -18.9°
Enters shadow 16:50:39 60° 121° (ESE) 533 4.4 -19.5°
